Location: Recife
(8.0585°S, 34.8848°W)
Time: 11:13:57
(UTC-03:00)

Vanguard 2 Rocket - Pass Details

Date: 22 April 2026
Orbit: 553 x 3286 km, 32.9° (Epoch: 7 May)

Event Time Altitude Azimuth Distance (km) Brightness Sun altitude
Rises 08:32:23 0° 226° (SW) 4,889 10.2 44.1°
Reaches altitude 10° 08:35:58 10° 213° (SSW) 4,290 10.1 44.9°
Maximum altitude 08:46:19 28° 158° (SSE) 3,953 10.4 47.1°
Drops below altitude 10° 09:00:47 10° 106° (ESE) 6,067 11.6 50.3°
Sets 09:07:11 0° 95° (E) 7,240 11.9 51.6°
